Terminal Aerodrome Forecast
Issued by NWS Wakefield, VA

Home | Current Version | Previous Version | Text Only | Print | Product List | Glossary On
Versions: 1 2 3 4 5 6 7 8 9 10 11 12 13 14 15 16 17 18 19
000
FTUS41 KAKQ 011404 AAA
TAFECG
TAF AMD
KECG 011404Z 0114/0212 01005KT P6SM BKN015 BKN025
     FM011600 05005KT P6SM BKN050
     FM012200 VRB02KT P6SM SKC=

USA.gov is the U.S. government's official web portal to all federal, state and local government web resources and services.